AirNav   Everest Fuels
 
 1285 users online  

SN34 Rucker Airport
Clearwater, Kansas, USA

GOING TO CLEARWATER?


FAA INFORMATION EFFECTIVE 06 OCTOBER 2022

Location

FAA Identifier: SN34
Lat/Long: 37-34-30.0580N 097-29-31.1690W
37-34.500967N 097-29.519483W
37.5750161,-97.4919914
(estimated)
Elevation: 1300 ft. / 396 m (estimated)
Variation: 07E (1985)
From city: 4 miles N of CLEARWATER, KS
Time zone: UTC -5 (UTC -6 during Standard Time)
Zip code: 67026

Airport Operations

Airport use: Private use. Permission required prior to landing
Activation date: 04/1971
Control tower: no
ARTCC: KANSAS CITY CENTER
FSS: WICHITA FLIGHT SERVICE STATION
Attendance: UNATNDD
Wind indicator: no
Segmented circle: no

Airport Communications

WX ASOS at ICT (5 nm NE): PHONE 316-945-8022
WX AWOS-3PT at BEC (15 nm NE): 119.45 (316-515-7116)
WX AWOS-3P at EGT (16 nm S): 118.875 (620-359-2156)
WX ASOS at AAO (17 nm NE): 134.025 (316-636-2541)

Nearby radio navigation aids

VOR radial/distance  VOR name  Freq  Var
ICTr150/11.1WICHITA VORTAC113.8007E
HUTr136/32.9HUTCHINSON VOR/DME116.8004E

 
NDB name  Hdg/Dist  Freq  Var  ID
PICHE260/1.733204EIC .. -.-.

Airport Services

Runway Information

Runway 17/35

Dimensions: 2600 x 100 ft. / 792 x 30 m
Surface: turf
RUNWAY 17  RUNWAY 35
Traffic pattern: rightleft

Airport Ownership and Management from official FAA records

Ownership: Privately-owned
Owner: RUCKER FIELD ASSOCIATION
13149 WEST 63RD ST SOUTH
CLEARWATER, KS 67026
Phone 316-619-6772
Manager: AARON TOBIAS
13149 WEST 63RD ST SOUTH
CLEARWATER, KS 67026
Phone 316-619-6772

Airport Operational Statistics

Aircraft based on the field: 6
Single engine airplanes: 6
    

Additional Remarks

RY 35 272 FT RADIO TWR 1100 FT W OF NORTH END OF RY.
CTC ICT TWR FOR ADZYS, DUE TO CLOSE PROXIMITY TO CLASS C SFC ASP.
RWY 17- RP ONLY
FOR CD CTC WICHITA APCH AT 316-350-1520.

Instrument Procedures

There are no published instrument procedures at SN34.

Some nearby airports with instrument procedures:

KICT - Wichita Dwight D Eisenhower National Airport (5 nm NE)
KIAB - Mc Connell Air Force Base (11 nm E)
KCEA - Cessna Aircraft Field Airport (12 nm E)
KBEC - Beech Factory Airport (15 nm NE)
KEGT - Wellington Municipal Airport (16 nm S)
KAAO - Colonel James Jabara Airport (17 nm NE)
 
Loc | Ops | Rwys | IFR | FBO | Links
Com | Nav | Svcs | Stats | Notes
Area around SN34 (Rucker Airport)
 
Road maps at: MapQuest Bing Google
 
Aerial photo
No photo
 
Sectional chart

 
Airport distance calculator
Flying to Rucker Airport? Find the distance to fly.

From to SN34

Sunrise and sunset
Times for 07-Oct-2022
 Local
(UTC-5)
 Zulu
(UTC)
Morning civil twilight07:0612:06
Sunrise07:3212:32
Sunset19:0400:04
Evening civil twilight19:3000:30

Current date and time
Zulu (UTC)  07-Oct-2022 21:43:18
Local (UTC-5)  07-Oct-2022 16:43:18
 
METAR
KICT 
5nm NE 
072053Z 01014G23KT 10SM SCT130 BKN250 17/M01 A3042 RMK AO2 SLP296 T01721011 55012
KIAB 
11nm E 
072055Z AUTO 02016KT 10SM FEW110 17/M01 A3039 RMK AO2 SLP291 T01681013 55012
KBEC 
15nm NE 
072115Z AUTO 01018G21KT 10SM SCT065 SCT110 15/M02 A3042 RMK AO2 T01511017
KAAO 
17nm NE 
072054Z AUTO 36014G22KT 10SM CLR 17/M02 A3042 RMK AO2 SLP300 T01671017 55011
TAF
KICT 
5nm NE 
071936Z 0720/0818 02015G23KT P6SM SCT100 FM080100 04011KT P6SM SCT110 FM081400 12008KT P6SM BKN070 FM081700 15009KT P6SM BKN090
KIAB 
11nm E 
071800Z 0718/0824 04012G18KT 9999 SCT080 BKN100 QNH3038INS BECMG 0803/0804 VRB06KT 9999 BKN050 OVC100 QNH3030INS WND 20006 AFT 0818 TX18/0721Z TN08/0812Z
NOTAMs
Click for the latest NOTAMs
NOTAMs are issued by the DoD/FAA and will open in a separate window not controlled by AirNav.

 

 
 

Would you like to see your business listed on this page?

 If your business provides an interesting product or service to pilots, flight crews, aircraft, or users of the Rucker Airport, you should consider listing it here.  To start the listing process, click on the button below
 
Add a business
 

Other Pages about Rucker Airport

Update a link
 
Copyright © AirNav, LLC. All rights reserved. Privacy Policy  Contact